"SCET";"TARGET";"ELECTRON_DENSITY";"ERROR_FLAG";"ELECTRON_DENSITY_ERROR";"FREQ_FCE";"MEASURED_VALUE";"MEASURED_ITEM";"FREQ_PLASMA";"FREQ_UPPER_HYBRID";"FREQ_R_EQUALS_ZERO";"FREQ_L_EQUALS_ZERO";"ORBIT_NUMBER";"SATURN_RADIUS";"SATURN_IAU_LONGITUDE";"SATURN_SLS4_S_LONGITUDE";"SATURN_SLS4_N_LONGITUDE";"SATURN_SLS5_S_LONGITUDE";"SATURN_SLS5_N_LONGITUDE";"SATURN_LOCAL_TIME";"SATURN_KRONOGRAPHIC_LATITUDE";"SATURN_MAGNETIC_LATITUDE";"SATURN_L";"SATURN_L_OFFSET";"SATURN_SOLAR_EQUATORIAL_X";"SATURN_SOLAR_EQUATORIAL_Y";"SATURN_SOLAR_EQUATORIAL_Z";"SATURN_ALTITUDE";"ENCELADUS_ENCOUNTER_NUMBER";"ENCELADUS_RADIUS";"ENCELADUS_COROTATIONAL_X";"ENCELADUS_COROTATIONAL_Y";"ENCELADUS_COROTATIONAL_Z";"ENCELADUS_TRUE_ANOMALY";"ENCELADUS_PERIAPSIS_TIME";"JUPITER_RADIUS";"JUPITER_SYSTEMIII_LONGITUDE";"JUPITER_MAGNETIC_LATITUDE";"JUPITER_MAGNETIC_LOCAL_TIME";"JUPITER_L";"IO_PHASE";"EARTH_RADIUS";"EARTH_MAGNETIC_LATITUDE";"EARTH_LOCAL_TIME";"EARTH_L"
"[UTC]";"[0=Saturn, 1=Enceladus, 2=Jupiter, 3=Earth]";"[cm-3]";"[0=automated, 1=manual]";"[normalized density error]";"[Hz]";"[Hz]";"[0=upper hybrid frequency, 1=plasma frequency cutoff]";"[Hz]";"[Hz]";"[Hz]";"[Hz}";"[0, A, B, C, 3, 4, ... , 292, 293]";"[Rs where 1Rs=60268km]";"[degrees]";"[degrees]";"[degrees]";"[degrees]";"[degrees]";"[hours]";"[degrees]";"[degrees where offset=2293km north]";"[Rs where 1Rs=60268km]";"[Rs where 1Rs=60268km and offset=2293km north]";"[Rs where 1Rs=60268km]";"[Rs where 1Rs=60268km]";"[Rs where 1Rs=60268km]";"[km where ellipsoid a,b=60268km and c=54364km]";"[E0, E1, E2, ... , E21, E22]";"[Renc where 1Renc=252.1km]";"[Renc where 1Renc=252.1km]";"[Renc where 1Renc=252.1km]";"[Renc where 1Renc=252.1km]";"[degrees]";"[UTC]";"[Rj where 1Rj=71492km]";"[degrees]";"[degrees using JRM09 model]";"[hours using JRM09 model]";"[Rj where 1Rj=71492km]";"[degrees]";"[Re where 1Re=6378.1366km]";"[degrees]";"[hours]";"[Re where 1Re=6378.1366km]"
2005-05-02T19:48:30.182Z;0;3.4750e+00;0;     0.345;  3885.000;  17185.562; 0;  16740.680;  17185.562;  18795.500;  14910.501;  7;   5.416; 196.516;  23.722;;  32.026;  76.683;  14.762; -14.108; -14.497;   5.758;   5.420;   3.938;   3.475;  -1.320;;;;;;;;;;;;;;;;;;
2005-05-02T19:48:38.182Z;0;3.5680e+00;0;     0.308;  3885.000;  17402.123; 0;  16962.920;  17402.123;  19016.279;  15131.280;  7;   5.415; 196.575;  23.779;;  32.082;  76.743;  14.763; -14.103; -14.492;   5.756;   5.418;   3.937;   3.476;  -1.319;;;;;;;;;;;;;;;;;;
2005-05-02T19:48:46.182Z;0;3.6470e+00;0;     0.310;  3885.000;  17584.637; 0;  17150.109;  17584.637;  19202.266;  15317.267;  7;   5.413; 196.634;  23.837;;  32.138;  76.803;  14.764; -14.098; -14.488;   5.755;   5.417;   3.935;   3.476;  -1.319;;;;;;;;;;;;;;;;;;
2005-05-02T19:48:54.182Z;0;3.6440e+00;0;     0.298;  3885.000;  17577.332; 0;  17142.619;  17577.332;  19194.824;  15309.824;  7;   5.412; 196.692;  23.895;;  32.195;  76.863;  14.765; -14.093; -14.483;   5.754;   5.416;   3.933;   3.477;  -1.318;;;;;;;;;;;;;;;;;;
2005-05-02T19:49:02.181Z;0;3.5870e+00;0;     0.296;  3885.000;  17446.760; 0;  17008.709;  17446.760;  19061.773;  15176.773;  7;   5.411; 196.751;  23.952;;  32.251;  76.923;  14.766; -14.088; -14.478;   5.752;   5.415;   3.931;   3.477;  -1.317;;;;;;;;;;;;;;;;;;
2005-05-02T19:49:10.181Z;0;3.6180e+00;0;     0.293;  3885.000;  17517.152; 0;  17080.908;  17517.152;  19133.506;  15248.507;  7;   5.410; 196.809;  24.010;;  32.307;  76.983;  14.767; -14.083; -14.473;   5.751;   5.414;   3.930;   3.478;  -1.316;;;;;;;;;;;;;;;;;;
2005-05-02T19:49:18.181Z;0;3.5920e+00;0;     0.302;  3901.072;  17460.965; 0;  17019.604;  17460.965;  19081.547;  15180.475;  7;   5.409; 196.868;  24.067;;  32.363;  77.043;  14.768; -14.078; -14.468;   5.749;   5.413;   3.928;   3.479;  -1.316;;;;;;;;;;;;;;;;;;
2005-05-02T19:49:26.181Z;0;3.6700e+00;0;     0.291;  3901.072;  17638.961; 0;  17202.168;  17638.961;  19262.936;  15361.863;  7;   5.408; 196.926;  24.125;;  32.420;  77.103;  14.769; -14.073; -14.464;   5.748;   5.412;   3.926;   3.479;  -1.315;;;;;;;;;;;;;;;;;;
2005-05-02T19:49:34.181Z;0;3.6660e+00;0;     0.298;  3901.072;  17629.697; 0;  17192.668;  17629.697;  19253.496;  15352.425;  7;   5.407; 196.985;  24.183;;  32.476;  77.163;  14.770; -14.069; -14.459;   5.747;   5.411;   3.925;   3.480;  -1.314;;;;;;;;;;;;;;;;;;
2005-05-02T19:49:42.181Z;0;3.6520e+00;0;     0.299;  3901.072;  17598.154; 0;  17160.322;  17598.154;  19221.357;  15320.285;  7;   5.406; 197.043;  24.240;;  32.532;  77.223;  14.772; -14.064; -14.454;   5.745;   5.410;   3.923;   3.480;  -1.314;;;;;;;;;;;;;;;;;;
2005-05-02T19:49:50.181Z;0;3.6040e+00;0;     0.289;  3900.960;  17487.492; 0;  17046.844;  17487.492;  19108.547;  15207.587;  7;   5.405; 197.102;  24.298;;  32.588;  77.283;  14.773; -14.059; -14.449;   5.744;   5.409;   3.921;   3.481;  -1.313;;;;;;;;;;;;;;;;;;
2005-05-02T19:49:58.181Z;0;3.6630e+00;0;     0.261;  3900.960;  17623.996; 0;  17186.848;  17623.996;  19247.650;  15346.690;  7;   5.404; 197.160;  24.355;;  32.644;  77.343;  14.774; -14.054; -14.444;   5.743;   5.408;   3.920;   3.481;  -1.312;;;;;;;;;;;;;;;;;;
2005-05-02T19:50:06.181Z;0;3.6170e+00;0;     0.301;  3900.960;  17517.814; 0;  17077.949;  17517.814;  19139.451;  15238.490;  7;   5.403; 197.219;  24.413;;  32.702;  77.403;  14.775; -14.049; -14.440;   5.741;   5.407;   3.918;   3.482;  -1.312;;;;;;;;;;;;;;;;;;
2005-05-02T19:50:14.181Z;0;3.6880e+00;0;     0.286;  3900.960;  17681.504; 0;  17245.814;  17681.504;  19306.242;  15405.281;  7;   5.402; 197.278;  24.470;;  32.759;  77.463;  14.776; -14.044; -14.435;   5.740;   5.406;   3.916;   3.482;  -1.311;;;;;;;;;;;;;;;;;;
2005-05-02T19:50:22.181Z;0;3.6550e+00;0;     0.281;  3916.892;  17610.037; 0;  17168.906;  17610.037;  19238.691;  15321.799;  7;   5.401; 197.336;  24.528;;  32.816;  77.522;  14.777; -14.039; -14.430;   5.739;   5.405;   3.915;   3.483;  -1.310;;;;;;;;;;;;;;;;;;
2005-05-02T19:50:30.181Z;0;3.5480e+00;0;     0.291;  3916.892;  17363.535; 0;  16915.979;  17363.535;  18987.416;  15070.523;  7;   5.400; 197.395;  24.586;;  32.874;  77.581;  14.778; -14.034; -14.425;   5.737;   5.404;   3.913;   3.483;  -1.309;;;;;;;;;;;;;;;;;;
2005-05-02T19:50:38.181Z;0;3.8340e+00;0;     0.378;  3916.892;  18014.004; 0;  17583.012;  18014.004;  19650.189;  15733.298;  7;   5.399; 197.453;  24.643;;  32.931;  77.641;  14.779; -14.029; -14.420;   5.736;   5.403;   3.911;   3.484;  -1.309;;;;;;;;;;;;;;;;;;
2005-05-02T19:50:46.181Z;0;3.6680e+00;0;     0.318;  3916.920;  17639.520; 0;  17199.139;  17639.520;  19268.744;  15351.824;  7;   5.398; 197.512;  24.701;;  32.989;  77.700;  14.780; -14.024; -14.415;   5.735;   5.402;   3.910;   3.484;  -1.308;;;;;;;;;;;;;;;;;;
2005-05-02T19:50:54.181Z;0;3.6000e+00;0;     0.322;  3916.920;  17483.836; 0;  17039.432;  17483.836;  19110.072;  15193.153;  7;   5.397; 197.570;  24.758;;  33.047;  77.760;  14.782; -14.019; -14.411;   5.733;   5.401;   3.908;   3.485;  -1.307;;;;;;;;;;;;;;;;;;
2005-05-02T19:51:02.181Z;0;3.6940e+00;0;     0.312;  3916.920;  17697.986; 0;  17259.098;  17697.986;  19328.320;  15411.399;  7;   5.396; 197.628;  24.816;;  33.104;  77.819;  14.783; -14.014; -14.406;   5.732;   5.400;   3.906;   3.485;  -1.307;;;;;;;;;;;;;;;;;;
2005-05-02T19:51:10.181Z;0;3.8940e+00;0;     0.381;  3916.920;  18149.025; 0;  17721.311;  18149.025;  19787.662;  15870.741;  7;   5.395; 197.687;  24.873;;  33.162;  77.878;  14.784; -14.010; -14.401;   5.730;   5.399;   3.905;   3.486;  -1.306;;;;;;;;;;;;;;;;;;
2005-05-02T19:51:18.181Z;0;3.7170e+00;0;     0.376;  3932.936;  17753.889; 0;  17312.787;  17753.889;  19390.576;  15457.641;  7;   5.394; 197.745;  24.931;;  33.219;  77.938;  14.785; -14.005; -14.396;   5.729;   5.397;   3.903;   3.487;  -1.305;;;;;;;;;;;;;;;;;;
2005-05-02T19:51:26.181Z;0;3.7110e+00;0;     0.283;  3932.936;  17741.416; 0;  17299.996;  17741.416;  19377.867;  15444.932;  7;   5.393; 197.804;  24.988;;  33.277;  77.997;  14.786; -14.000; -14.391;   5.728;   5.396;   3.901;   3.487;  -1.305;;;;;;;;;;;;;;;;;;
2005-05-02T19:51:34.181Z;0;3.5790e+00;0;     0.330;  3932.936;  17437.238; 0;  16987.916;  17437.238;  19067.822;  15134.886;  7;   5.392; 197.862;  25.046;;  33.334;  78.057;  14.787; -13.995; -14.386;   5.726;   5.395;   3.900;   3.488;  -1.304;;;;;;;;;;;;;;;;;;
2005-05-02T19:51:42.180Z;0;3.8220e+00;0;     0.409;  3932.936;  17989.992; 0;  17554.824;  17989.992;  19631.090;  15698.152;  7;   5.390; 197.921;  25.103;;  33.392;  78.116;  14.788; -13.990; -14.381;   5.725;   5.394;   3.898;   3.488;  -1.303;;;;;;;;;;;;;;;;;;
2005-05-02T19:51:50.180Z;0;3.7080e+00;0;     0.306;  3933.160;  17733.766; 0;  17292.100;  17733.766;  19370.146;  15436.986;  7;   5.389; 197.979;  25.161;;  33.450;  78.175;  14.789; -13.985; -14.377;   5.724;   5.393;   3.896;   3.489;  -1.302;;;;;;;;;;;;;;;;;;
2005-05-02T19:52:14.180Z;0;3.7250e+00;0;     0.302;  3933.160;  17772.482; 0;  17331.803;  17772.482;  19409.596;  15476.437;  7;   5.386; 198.154;  25.333;;  33.622;  78.353;  14.793; -13.970; -14.362;   5.720;   5.390;   3.891;   3.490;  -1.300;;;;;;;;;;;;;;;;;;
2005-05-02T19:52:22.180Z;0;3.7030e+00;0;     0.309;  3949.148;  17725.791; 0;  17280.275;  17725.791;  19367.297;  15418.149;  7;   5.385; 198.213;  25.391;;  33.680;  78.413;  14.794; -13.965; -14.357;   5.718;   5.389;   3.889;   3.491;  -1.300;;;;;;;;;;;;;;;;;;
2005-05-02T19:52:30.180Z;0;3.7230e+00;0;     0.339;  3949.148;  17770.199; 0;  17325.824;  17770.199;  19412.555;  15463.406;  7;   5.384; 198.271;  25.448;;  33.738;  78.472;  14.795; -13.960; -14.352;   5.717;   5.388;   3.888;   3.491;  -1.299;;;;;;;;;;;;;;;;;;
2005-05-02T19:52:38.180Z;0;4.0310e+00;0;     0.401;  3949.148;  18457.061; 0;  18029.623;  18457.061;  20112.000;  16162.853;  7;   5.383; 198.330;  25.506;;  33.795;  78.531;  14.796; -13.955; -14.347;   5.716;   5.387;   3.886;   3.492;  -1.298;;;;;;;;;;;;;;;;;;
2005-05-02T19:52:46.180Z;0;3.7530e+00;0;     0.411;  3949.120;  17838.996; 0;  17396.385;  17838.996;  19482.646;  15533.527;  7;   5.382; 198.388;  25.563;;  33.853;  78.591;  14.797; -13.950; -14.342;   5.714;   5.386;   3.884;   3.492;  -1.297;;;;;;;;;;;;;;;;;;
2005-05-02T19:52:54.180Z;0;3.6490e+00;0;     0.316;  3949.120;  17601.697; 0;  17152.965;  17601.697;  19240.801;  15291.682;  7;   5.381; 198.447;  25.621;;  33.911;  78.650;  14.798; -13.945; -14.338;   5.713;   5.385;   3.883;   3.493;  -1.297;;;;;;;;;;;;;;;;;;
2005-05-02T19:53:02.180Z;0;4.0060e+00;0;     0.402;  3949.120;  18401.309; 0;  17972.551;  18401.309;  20055.254;  16106.134;  7;   5.380; 198.505;  25.678;;  33.969;  78.709;  14.799; -13.940; -14.333;   5.711;   5.384;   3.881;   3.493;  -1.296;;;;;;;;;;;;;;;;;;
2005-05-02T19:53:10.180Z;0;3.6870e+00;0;     0.318;  3949.120;  17689.189; 0;  17242.734;  17689.189;  19329.984;  15380.864;  7;   5.379; 198.563;  25.736;;  34.026;  78.769;  14.800; -13.935; -14.328;   5.710;   5.383;   3.879;   3.494;  -1.295;;;;;;;;;;;;;;;;;;
2005-05-02T19:53:18.180Z;0;4.0110e+00;0;     0.417;  3965.500;  18415.982; 0;  17983.971;  18415.982;  20075.691;  16110.191;  7;   5.378; 198.622;  25.793;;  34.084;  78.828;  14.802; -13.930; -14.323;   5.709;   5.382;   3.878;   3.494;  -1.295;;;;;;;;;;;;;;;;;;
2005-05-02T19:53:26.180Z;0;3.9700e+00;0;     0.388;  3965.500;  18325.719; 0;  17891.527;  18325.719;  19983.807;  16018.308;  7;   5.377; 198.680;  25.851;;  34.142;  78.887;  14.803; -13.925; -14.318;   5.707;   5.381;   3.876;   3.495;  -1.294;;;;;;;;;;;;;;;;;;
2005-05-02T19:53:34.180Z;0;3.8200e+00;0;     0.342;  3965.500;  17994.383; 0;  17551.998;  17994.383;  19646.383;  15680.883;  7;   5.376; 198.738;  25.908;;  34.200;  78.947;  14.804; -13.920; -14.313;   5.706;   5.380;   3.874;   3.496;  -1.293;;;;;;;;;;;;;;;;;;
2005-05-02T19:53:42.180Z;0;3.9850e+00;0;     0.406;  3965.500;  18360.121; 0;  17926.764;  18360.121;  20018.830;  16053.329;  7;   5.375; 198.797;  25.965;;  34.257;  79.006;  14.805; -13.915; -14.308;   5.705;   5.379;   3.873;   3.496;  -1.293;;;;;;;;;;;;;;;;;;
2005-05-02T19:53:50.180Z;0;3.7060e+00;0;     0.309;  3965.360;  17735.361; 0;  17286.381;  17735.361;  19382.393;  15417.032;  7;   5.374; 198.855;  26.023;;  34.315;  79.065;  14.806; -13.910; -14.303;   5.703;   5.378;   3.871;   3.497;  -1.292;;;;;;;;;;;;;;;;;;
2005-05-02T19:53:58.180Z;0;3.7820e+00;0;     0.330;  3965.360;  17908.746; 0;  17464.225;  17908.746;  19559.088;  15593.729;  7;   5.373; 198.913;  26.080;;  34.373;  79.125;  14.807; -13.905; -14.298;   5.702;   5.377;   3.869;   3.497;  -1.291;;;;;;;;;;;;;;;;;;
2005-05-02T19:54:06.180Z;0;4.0110e+00;0;     0.339;  3965.360;  18417.691; 0;  17985.752;  18417.691;  20077.383;  16112.023;  7;   5.372; 198.972;  26.138;;  34.431;  79.184;  14.808; -13.900; -14.293;   5.701;   5.376;   3.867;   3.498;  -1.290;;;;;;;;;;;;;;;;;;
2005-05-02T19:54:14.179Z;0;3.7640e+00;0;     0.300;  3965.360;  17867.826; 0;  17422.260;  17867.826;  19517.393;  15552.033;  7;   5.371; 199.030;  26.195;;  34.489;  79.243;  14.809; -13.895; -14.288;   5.699;   5.374;   3.866;   3.498;  -1.290;;;;;;;;;;;;;;;;;;
2005-05-02T19:54:22.179Z;0;3.9810e+00;0;     0.364;  3981.600;  18353.896; 0;  17916.818;  18353.896;  20017.881;  16036.281;  7;   5.370; 199.088;  26.252;;  34.546;  79.302;  14.810; -13.890; -14.284;   5.698;   5.373;   3.864;   3.499;  -1.289;;;;;;;;;;;;;;;;;;
2005-05-02T19:54:30.179Z;0;4.0230e+00;0;     0.336;  3981.600;  18445.838; 0;  18010.990;  18445.838;  20111.480;  16129.881;  7;   5.369; 199.147;  26.310;;  34.604;  79.362;  14.812; -13.885; -14.279;   5.697;   5.372;   3.862;   3.499;  -1.288;;;;;;;;;;;;;;;;;;
2005-05-02T19:54:38.179Z;0;3.7350e+00;0;     0.314;  3981.600;  17805.592; 0;  17354.711;  17805.592;  19459.322;  15477.722;  7;   5.367; 199.205;  26.367;;  34.662;  79.421;  14.813; -13.880; -14.274;   5.695;   5.371;   3.861;   3.500;  -1.288;;;;;;;;;;;;;;;;;;
2005-05-02T19:54:46.179Z;0;3.7240e+00;0;     0.302;  3981.880;  17781.320; 0;  17329.742;  17781.320;  19434.674;  15452.793;  7;   5.366; 199.263;  26.425;;  34.720;  79.480;  14.814; -13.875; -14.269;   5.694;   5.370;   3.859;   3.500;  -1.287;;;;;;;;;;;;;;;;;;
2005-05-02T19:54:54.179Z;0;3.6320e+00;0;     0.308;  3981.880;  17572.008; 0;  17114.908;  17572.008;  19221.260;  15239.380;  7;   5.365; 199.322;  26.482;;  34.778;  79.539;  14.815; -13.870; -14.264;   5.693;   5.369;   3.857;   3.501;  -1.286;;;;;;;;;;;;;;;;;;
2005-05-02T19:55:02.179Z;0;3.7260e+00;0;     0.286;  3981.880;  17784.412; 0;  17332.916;  17784.412;  19437.824;  15455.944;  7;   5.364; 199.380;  26.539;;  34.836;  79.599;  14.816; -13.865; -14.259;   5.691;   5.368;   3.856;   3.501;  -1.285;;;;;;;;;;;;;;;;;;
2005-05-02T19:55:10.179Z;0;3.7180e+00;0;     0.263;  3981.880;  17767.475; 0;  17315.535;  17767.475;  19420.559;  15438.679;  7;   5.363; 199.438;  26.597;;  34.894;  79.658;  14.817; -13.860; -14.254;   5.690;   5.367;   3.854;   3.502;  -1.285;;;;;;;;;;;;;;;;;;
2005-05-02T19:55:18.179Z;0;3.6610e+00;0;     0.304;  3997.896;  17642.047; 0;  17183.092;  17642.047;  19297.920;  15300.024;  7;   5.362; 199.497;  26.654;;  34.952;  79.717;  14.818; -13.855; -14.249;   5.688;   5.366;   3.852;   3.502;  -1.284;;;;;;;;;;;;;;;;;;
2005-05-02T19:55:34.179Z;0;3.9540e+00;0;     0.315;  3997.896;  18299.514; 0;  17857.465;  18299.514;  19967.943;  15970.048;  7;   5.360; 199.613;  26.769;;  35.067;  79.835;  14.820; -13.845; -14.239;   5.686;   5.364;   3.849;   3.503;  -1.283;;;;;;;;;;;;;;;;;;
2005-05-02T19:55:42.179Z;0;3.7030e+00;0;     0.288;  3997.896;  17737.221; 0;  17280.793;  17737.221;  19394.971;  15397.075;  7;   5.359; 199.671;  26.826;;  35.125;  79.895;  14.822; -13.840; -14.234;   5.684;   5.363;   3.847;   3.504;  -1.282;;;;;;;;;;;;;;;;;;
2005-05-02T19:55:50.179Z;0;3.6810e+00;0;     0.270;  3998.400;  17687.141; 0;  17229.270;  17687.141;  19344.070;  15345.671;  7;   5.358; 199.730;  26.883;;  35.183;  79.954;  14.823; -13.835; -14.229;   5.683;   5.362;   3.846;   3.504;  -1.281;;;;;;;;;;;;;;;;;;
2005-05-02T19:55:58.179Z;0;3.6980e+00;0;     0.281;  3998.400;  17724.623; 0;  17267.746;  17724.623;  19382.291;  15383.892;  7;   5.357; 199.788;  26.941;;  35.241;  80.013;  14.824; -13.830; -14.224;   5.682;   5.361;   3.844;   3.505;  -1.281;;;;;;;;;;;;;;;;;;
2005-05-02T19:56:06.179Z;0;3.7740e+00;0;     0.293;  3998.400;  17898.453; 0;  17446.129;  17898.453;  19559.502;  15561.103;  7;   5.356; 199.846;  26.998;;  35.299;  80.072;  14.825; -13.825; -14.219;   5.680;   5.360;   3.842;   3.505;  -1.280;;;;;;;;;;;;;;;;;;
2005-05-02T19:56:14.179Z;0;3.6780e+00;0;     0.275;  3998.400;  17680.650; 0;  17222.607;  17680.650;  19337.453;  15339.053;  7;   5.355; 199.905;  27.055;;  35.357;  80.131;  14.826; -13.820; -14.214;   5.679;   5.359;   3.840;   3.506;  -1.279;;;;;;;;;;;;;;;;;;
2005-05-02T19:56:22.179Z;0;3.6420e+00;0;     0.272;  4014.276;  17601.598; 0;  17137.730;  17601.598;  19262.006;  15247.729;  7;   5.354; 199.963;  27.113;;  35.415;  80.191;  14.827; -13.815; -14.209;   5.678;   5.358;   3.839;   3.507;  -1.278;;;;;;;;;;;;;;;;;;
2005-05-02T19:56:30.179Z;0;3.7030e+00;0;     0.266;  4014.276;  17741.188; 0;  17281.068;  17741.188;  19404.377;  15390.101;  7;   5.353; 200.021;  27.170;;  35.473;  80.250;  14.828; -13.810; -14.204;   5.676;   5.357;   3.837;   3.507;  -1.278;;;;;;;;;;;;;;;;;;
2005-05-02T19:56:38.179Z;0;3.6610e+00;0;     0.287;  4014.276;  17644.426; 0;  17181.715;  17644.426;  19305.691;  15291.415;  7;   5.352; 200.079;  27.227;;  35.531;  80.309;  14.829; -13.805; -14.199;   5.675;   5.356;   3.835;   3.508;  -1.277;;;;;;;;;;;;;;;;;;
2005-05-02T19:56:46.179Z;0;3.6150e+00;0;     0.288;  4014.920;  17540.137; 0;  17074.449;  17540.137;  19199.514;  15184.594;  7;   5.351; 200.137;  27.285;;  35.590;  80.368;  14.831; -13.800; -14.194;   5.674;   5.355;   3.834;   3.508;  -1.276;;;;;;;;;;;;;;;;;;
2005-05-02T19:56:54.178Z;0;3.6060e+00;0;     0.256;  4014.920;  17518.064; 0;  17051.773;  17518.064;  19176.994;  15162.074;  7;   5.350; 200.196;  27.342;;  35.648;  80.427;  14.832; -13.794; -14.189;   5.672;   5.354;   3.832;   3.509;  -1.276;;;;;;;;;;;;;;;;;;
2005-05-02T19:57:02.178Z;0;3.6720e+00;0;     0.284;  4014.920;  17670.080; 0;  17207.910;  17670.080;  19332.068;  15317.148;  7;   5.349; 200.254;  27.399;;  35.706;  80.486;  14.833; -13.789; -14.184;   5.671;   5.353;   3.830;   3.509;  -1.275;;;;;;;;;;;;;;;;;;
2005-05-02T19:57:10.178Z;0;3.6820e+00;0;     0.299;  4014.920;  17693.576; 0;  17232.035;  17693.576;  19356.031;  15341.112;  7;   5.348; 200.312;  27.456;;  35.764;  80.546;  14.834; -13.784; -14.179;   5.670;   5.351;   3.829;   3.510;  -1.274;;;;;;;;;;;;;;;;;;
2005-05-02T19:57:18.178Z;0;3.6470e+00;0;     0.264;  4030.880;  17616.414; 0;  17149.055;  17616.414;  19282.520;  15251.640;  7;   5.347; 200.370;  27.514;;  35.822;  80.605;  14.835; -13.779; -14.174;   5.668;   5.350;   3.827;   3.510;  -1.273;;;;;;;;;;;;;;;;;;
2005-05-02T19:57:26.178Z;0;3.5860e+00;0;     0.268;  4030.880;  17475.555; 0;  17004.324;  17475.555;  19138.787;  15107.907;  7;   5.346; 200.429;  27.571;;  35.880;  80.664;  14.836; -13.774; -14.169;   5.667;   5.349;   3.825;   3.511;  -1.273;;;;;;;;;;;;;;;;;;
2005-05-02T19:57:34.178Z;0;3.6750e+00;0;     0.273;  4030.880;  17679.736; 0;  17214.096;  17679.736;  19347.119;  15316.238;  7;   5.345; 200.487;  27.628;;  35.938;  80.723;  14.837; -13.769; -14.164;   5.666;   5.348;   3.823;   3.511;  -1.272;;;;;;;;;;;;;;;;;;
2005-05-02T19:57:42.178Z;0;3.7360e+00;0;     0.218;  4030.880;  17818.049; 0;  17356.119;  17818.049;  19488.186;  15457.307;  7;   5.344; 200.545;  27.685;;  35.996;  80.782;  14.838; -13.764; -14.159;   5.664;   5.347;   3.822;   3.512;  -1.271;;;;;;;;;;;;;;;;;;
2005-05-02T19:57:50.178Z;0;3.6680e+00;0;     0.278;  4031.160;  17665.244; 0;  17199.145;  17665.244;  19332.426;  15301.267;  7;   5.342; 200.603;  27.743;;  36.054;  80.841;  14.840; -13.759; -14.154;   5.663;   5.346;   3.820;   3.512;  -1.271;;;;;;;;;;;;;;;;;;
2005-05-02T19:57:58.178Z;0;3.5860e+00;0;     0.278;  4031.160;  17475.496; 0;  17004.197;  17475.496;  19138.818;  15107.658;  7;   5.341; 200.661;  27.800;;  36.113;  80.900;  14.841; -13.754; -14.149;   5.661;   5.345;   3.818;   3.513;  -1.270;;;;;;;;;;;;;;;;;;
2005-05-02T19:58:06.178Z;0;3.6530e+00;0;     0.290;  4031.160;  17630.615; 0;  17163.576;  17630.615;  19297.100;  15265.939;  7;   5.340; 200.719;  27.857;;  36.171;  80.959;  14.842; -13.749; -14.144;   5.660;   5.344;   3.817;   3.513;  -1.269;;;;;;;;;;;;;;;;;;
2005-05-02T19:58:14.178Z;0;3.8970e+00;0;     0.384;  4031.160;  18179.344; 0;  17726.768;  18179.344;  19856.568;  15825.408;  7;   5.339; 200.778;  27.914;;  36.229;  81.019;  14.843; -13.744; -14.139;   5.659;   5.343;   3.815;   3.514;  -1.268;;;;;;;;;;;;;;;;;;
2005-05-02T19:58:22.178Z;0;3.5870e+00;0;     0.278;  4047.316;  17482.852; 0;  17007.920;  17482.852;  19151.545;  15104.229;  7;   5.338; 200.836;  27.972;;  36.287;  81.078;  14.844; -13.739; -14.134;   5.657;   5.342;   3.813;   3.514;  -1.268;;;;;;;;;;;;;;;;;;
2005-05-02T19:58:30.178Z;0;3.6340e+00;0;     0.298;  4047.316;  17589.988; 0;  17118.029;  17589.988;  19260.889;  15213.572;  7;   5.337; 200.894;  28.029;;  36.345;  81.137;  14.845; -13.733; -14.129;   5.656;   5.341;   3.812;   3.515;  -1.267;;;;;;;;;;;;;;;;;;
2005-05-02T19:58:38.178Z;0;3.6400e+00;0;     0.291;  4047.316;  17603.719; 0;  17132.139;  17603.719;  19274.900;  15227.584;  7;   5.336; 200.952;  28.086;;  36.404;  81.196;  14.846; -13.728; -14.124;   5.655;   5.340;   3.810;   3.515;  -1.266;;;;;;;;;;;;;;;;;;
2005-05-02T19:58:46.178Z;0;3.6820e+00;0;     0.277;  4047.960;  17700.227; 0;  17231.135;  17700.227;  19373.578;  15325.617;  7;   5.335; 201.010;  28.143;;  36.462;  81.255;  14.847; -13.723; -14.119;   5.653;   5.339;   3.808;   3.516;  -1.266;;;;;;;;;;;;;;;;;;
2005-05-02T19:58:54.178Z;0;3.6680e+00;0;     0.317;  4047.960;  17669.119; 0;  17199.180;  17669.119;  19341.840;  15293.880;  7;   5.334; 201.068;  28.200;;  36.520;  81.314;  14.849; -13.718; -14.114;   5.652;   5.338;   3.807;   3.516;  -1.265;;;;;;;;;;;;;;;;;;
2005-05-02T19:59:02.178Z;0;3.9290e+00;0;     0.388;  4047.960;  18254.662; 0;  17800.188;  18254.662;  19938.867;  15890.907;  7;   5.333; 201.126;  28.258;;  36.578;  81.373;  14.850; -13.713; -14.109;   5.651;   5.337;   3.805;   3.517;  -1.264;;;;;;;;;;;;;;;;;;
2005-05-02T19:59:10.178Z;0;3.5920e+00;0;     0.300;  4047.960;  17493.619; 0;  17018.834;  17493.619;  19162.744;  15114.783;  7;   5.332; 201.185;  28.315;;  36.637;  81.432;  14.851; -13.708; -14.104;   5.649;   5.336;   3.803;   3.517;  -1.264;;;;;;;;;;;;;;;;;;
2005-05-02T19:59:18.178Z;0;3.6460e+00;0;     0.314;  4064.032;  17622.480; 0;  17147.463;  17622.480;  19299.457;  15235.426;  7;   5.331; 201.243;  28.372;;  36.695;  81.491;  14.852; -13.703; -14.099;   5.648;   5.335;   3.801;   3.518;  -1.263;;;;;;;;;;;;;;;;;;
2005-05-02T19:59:26.178Z;0;3.9280e+00;0;     0.360;  4064.032;  18256.732; 0;  17798.650;  18256.732;  19946.285;  15882.252;  7;   5.330; 201.301;  28.429;;  36.753;  81.550;  14.853; -13.698; -14.094;   5.647;   5.334;   3.800;   3.518;  -1.262;;;;;;;;;;;;;;;;;;
2005-05-02T19:59:34.177Z;0;3.6980e+00;0;     0.308;  4064.032;  17739.789; 0;  17267.998;  17739.789;  19419.162;  15355.130;  7;   5.329; 201.359;  28.486;;  36.811;  81.609;  14.854; -13.692; -14.089;   5.645;   5.333;   3.798;   3.519;  -1.261;;;;;;;;;;;;;;;;;;
2005-05-02T19:59:42.177Z;0;3.8810e+00;0;     0.384;  4064.032;  18150.855; 0;  17690.031;  18150.855;  19838.371;  15774.339;  7;   5.328; 201.417;  28.543;;  36.870;  81.668;  14.855; -13.687; -14.084;   5.644;   5.332;   3.796;   3.519;  -1.261;;;;;;;;;;;;;;;;;;
2005-05-02T19:59:50.177Z;0;3.6920e+00;0;     0.308;  4064.480;  17726.533; 0;  17254.273;  17726.533;  19405.783;  15341.303;  7;   5.327; 201.475;  28.601;;  36.928;  81.727;  14.857; -13.682; -14.079;   5.643;   5.331;   3.795;   3.520;  -1.260;;;;;;;;;;;;;;;;;;